Regional Weather Roundup
Issued by NWS Little Rock, AR

Home | Current Version | Previous Version | Text Only | Print | Product List | Glossary On
Versions: 1 2 3 4 5 6 7 8 9 10 11 12 13 14 15 16 17 18 19 20 21 22 23 24 25 26 27 28 29 30 31 32 33 34 35 36 37 38 39 40 41 42 43 44 45 46 47 48 49
000
ASUS44 KLZK 022305
RWRLZK

WEATHER ROUNDUP FOR ARKANSAS
NATIONAL WEATHER SERVICE LITTLE ROCK AR
600 PM CDT TUE JUN 02 2015

NOTE: "FAIR" INDICATES FEW OR NO CLOUDS BELOW 12,000 FEET WITH NO
SIGNIFICANT WEATHER AND/OR OBSTRUCTIONS TO VISIBILITY.

ARZ001-003-010-029-030000-
NORTHWEST ARKANSAS

CITY           SKY/WX    TMP DP  RH WIND       PRES   REMARKS
FAYETTEVILLE   MOSUNNY   76  66  71 S7        29.98F
FORT SMITH     PTSUNNY   81  66  60 VRB6      29.95F
HARRISON       MOSUNNY   75  64  68 SE5       30.01F
BENTONVILLE    CLOUDY    79  64  61 SW7       29.99F
ROGERS         PTSUNNY   77  65  66 E6        30.00S
SILOAM SPGS    PTSUNNY   79  64  61 S8        29.99S
HIGHFILL       MOSUNNY   79  67  66 S6        29.98S
SPRINGDALE     PTSUNNY   79  66  65 SW7       30.00F
$$

ARZ004-005-016-030000-
NORTH CENTRAL ARKANSAS

CITY           SKY/WX    TMP DP  RH WIND       PRES   REMARKS
BATESVILLE     SUNNY     75  61  60 E7        30.00F
FLIPPIN        MOSUNNY   75  61  60 E6        29.99F
MTN HOME       MOSUNNY   74  59  59 CALM      30.01S
$$

ARZ040-041-030000-
WEST CENTRAL ARKANSAS

CITY           SKY/WX    TMP DP  RH WIND       PRES   REMARKS
MENA           SUNNY     81  68  65 CALM      29.99F
MOUNT IDA      MOSUNNY   78  65  63 CALM      29.97F
$$

ARZ009-017-025-026-028-030000-
NORTHEAST ARKANSAS

CITY           SKY/WX    TMP DP  RH WIND       PRES   REMARKS
CORNING          N/A     66  59  77 NE9       30.04S
JONESBORO      PTSUNNY   68  59  73 NE9       30.02S
NEWPORT        MOSUNNY   74  61  63 E8        30.02F
WALNUT RIDGE   SUNNY     70  57  64 NE8       30.03S
BLYTHEVILLE    CLOUDY    72  60  66 N7        30.03S
$$

ARZ022-023-033-042-044-030000-
CENTRAL ARKANSAS

CITY           SKY/WX    TMP DP  RH WIND       PRES   REMARKS
LITTLE ROCK    MOSUNNY   79  61  53 E7        29.99F
N LITTLE ROCK  MOSUNNY   77  65  66 E5        29.99F
JACKSONVILLE   MOSUNNY   77  64  62 E7        29.99F
SEARCY         CLOUDY    75  64  68 E7        30.02S
HOT SPRINGS    CLOUDY    79  62  56 CALM      29.99F
RUSSELLVILLE   PTSUNNY   78  63  59 CALM      29.98F
CLINTON        FAIR      77  63  61 SW3       30.01S
$$

ARZ036-030000-
EAST ARKANSAS

CITY           SKY/WX    TMP DP  RH WIND       PRES   REMARKS
WEST MEMPHIS   PTSUNNY   73  59  61 N6        30.00F
$$

ARZ050-053-066-070-073-030000-
SOUTHWEST ARKANSAS

CITY           SKY/WX    TMP DP  RH WIND       PRES   REMARKS
ARKADELPHIA    FAIR      82  65  56 CALM      29.98F
CAMDEN         MOSUNNY   84  61  45 CALM      29.97F
TEXARKANA      CLOUDY    82  64  54 E5        29.97S
EL DORADO      SUNNY     83  62  49 NE6       29.97F
DE QUEEN       PTSUNNY   82  67  60 SE6       29.95F
$$

ARZ056-057-069-030000-
SOUTHEAST ARKANSAS

CITY           SKY/WX    TMP DP  RH WIND       PRES   REMARKS
PINE BLUFF     MOSUNNY   77  63  61 E5        29.99F
STUTTGART      MOSUNNY   75  63  64 MISG      30.01S
MONTICELLO     SUNNY     80  62  54 NE6       29.98F

$$




USA.gov is the U.S. government's official web portal to all federal, state and local government web resources and services.